Location: Dehesa de la Cepeda
(40.6574°N, 4.3013°W)
Time: 19:51:44
(UTC+00:00)

Vanguard 3 - Pass Details

Date: 02 August 2021
Orbit: 510 x 3260 km, 33.3° (Epoch: 22 September)

Event Time Altitude Azimuth Distance (km) Brightness Sun altitude
Rises 23:22:18 0° 281° (W) 6,968 12.3 -30.1°
Reaches altitude 10° 23:27:11 10° 275° (W) 6,106 11.8 -30.4°
Maximum altitude 23:44:37 41° 215° (SW) 4,035 10.2 -31.1°
Enters shadow 23:47:15 39° 199° (SSW) 4,010 10.1 -31.2°
